CW9792 Weather Reports


time (UTC)temp
C
wind
direction
speed
KPH
gust
KPH
rain 1hr
cm
rain 24hr
cm
rain mn
cm
humidity
%
barometer
mb
20260502212049 12 360 0.0 0.0 0.00 0.00 0.00 40 1017.4
20260502211549 12 348 0.0 0.0 0.00 0.00 0.00 41 1017.5
20260502211048 12 325 0.0 0.0 0.00 0.00 0.00 41 1017.4
20260502210547 12 11 0.0 0.0 0.00 0.00 0.00 40 1017.4
20260502210103 12 17 0.0 0.0 0.00 0.00 0.00 39 1017.4
20260502205547 12 351 0.0 0.0 0.00 0.00 0.00 37 1017.4
20260502205049 12 344 0.0 0.0 0.00 0.00 0.00 37 1017.4
20260502204549 13 347 0.0 0.0 0.00 0.00 0.00 38 1017.3
20260502204046 12 19 0.0 0.0 0.00 0.00 0.00 36 1017.5
20260502203546 12 9 0.0 0.0 0.00 0.00 0.00 38 1017.5
20260502203046 12 350 0.0 0.0 0.00 0.00 0.00 35 1017.6
20260502202545 12 9 0.0 0.0 0.00 0.00 0.00 37 1017.7
20260502202046 12 322 0.0 1.6 0.00 0.00 0.00 37 1017.8
20260502201549 12 346 0.0 1.6 0.00 0.00 0.00 35 1017.8
20260502201044 13 344 0.0 0.0 0.00 0.00 0.00 39 1017.9
20260502200544 12 349 0.0 0.0 0.00 0.00 0.00 36 1017.9
20260502200059 12 10 0.0 0.0 0.00 0.00 0.00 35 1017.9
20260502195541 12 347 0.0 0.0 0.00 0.00 0.00 38 1018.0
20260502195041 12 347 0.0 0.0 0.00 0.00 0.00 38 1018.1
20260502194543 12 344 0.0 0.0 0.00 0.00 0.00 37 1018.2
20260502194041 12 47 0.0 0.0 0.00 0.00 0.00 37 1018.2
20260502193542 12 40 0.0 1.6 0.00 0.00 0.00 38 1018.3
20260502193044 11 40 0.0 1.6 0.00 0.00 0.00 39 1018.3
20260502192541 11 355 0.0 0.0 0.00 0.00 0.00 38 1018.4
20260502192041 11 13 0.0 0.0 0.00 0.00 0.00 37 1018.4
20260502191545 11 345 0.0 0.0 0.00 0.00 0.00 38 1018.4
20260502191043 11 345 0.0 0.0 0.00 0.00 0.00 38 1018.4
20260502190540 11 345 0.0 0.0 0.00 0.00 0.00 37 1018.4
20260502190047 11 304 0.0 0.0 0.00 0.00 0.00 37 1018.4
20260502185539 12 293 0.0 0.0 0.00 0.00 0.00 36 1018.5
20260502185039 12 348 0.0 1.6 0.00 0.00 0.00 37 1018.5
20260502184539 12 313 0.0 1.6 0.00 0.00 0.00 38 1018.5
20260502184039 12 338 0.0 0.0 0.00 0.00 0.00 40 1018.6
20260502183538 11 338 0.0 0.0 0.00 0.00 0.00 37 1018.5
20260502183038 11 5 0.0 1.6 0.00 0.00 0.00 41 1018.6
20260502182538 12 22 0.0 1.6 0.00 0.00 0.00 40 1018.6
20260502182037 12 9 0.0 0.0 0.00 0.00 0.00 43 1018.6
20260502181539 11 360 0.0 0.0 0.00 0.00 0.00 42 1018.7
20260502181037 11 355 0.0 0.0 0.00 0.00 0.00 43 1018.8
20260502180536 10 355 0.0 0.0 0.00 0.00 0.00 42 1018.8
20260502164032 10 17 0.0 0.0 0.00 0.00 0.00 51 1019.1
20260502163533 10 5 0.0 0.0 0.00 0.00 0.00 49 1019.1
20260502163041 10 14 0.0 0.0 0.00 0.00 0.00 50 1019.2
20260502162532 10 360 0.0 0.0 0.00 0.00 0.00 48 1019.2
20260502162036 10 355 0.0 0.0 0.00 0.00 0.00 45 1019.2
20260502161532 11 348 0.0 0.0 0.00 0.00 0.00 46 1019.2
20260502161031 11 355 0.0 0.0 0.00 0.00 0.00 46 1019.1
20260502160530 11 13 0.0 0.0 0.00 0.00 0.00 46 1019.1
20260502152024 11 55 0.0 1.6 0.00 0.00 0.00 51 1019.0
20260502151548 10 48 0.0 1.6 0.00 0.00 0.00 52 1019.0
20260502151022 10 69 0.0 0.0 0.00 0.00 0.00 52 1018.9
20260502150521 10 28 0.0 1.6 0.00 0.00 0.00 54 1018.9
20260502130502 6 355 0.0 0.0 0.00 0.00 0.00 64 1018.8
20260502123559 5 349 0.0 0.0 0.00 0.00 0.00 66 1018.4
20260502123059 5 325 0.0 0.0 0.00 0.00 0.00 66 1018.4
20260502122602 5 302 0.0 0.0 0.00 0.00 0.00 66 1018.4
20260502122058 5 302 0.0 0.0 0.00 0.00 0.00 67 1018.4
20260502121557 5 299 0.0 0.0 0.00 0.00 0.00 67 1018.1
20260502121057 5 299 0.0 0.0 0.00 0.00 0.00 67 1018.1
20260502120556 5 299 0.0 0.0 0.00 0.00 0.00 67 1018.1
20260502115555 5 298 0.0 0.0 0.00 0.00 0.00 67 1017.9
20260502115055 5 299 0.0 0.0 0.00 0.00 0.00 67 1017.8
20260502114555 4 299 0.0 0.0 0.00 0.00 0.00 67 1017.8
20260502114055 4 298 0.0 0.0 0.00 0.00 0.00 68 1017.8
20260502113555 4 297 0.0 0.0 0.00 0.00 0.00 68 1017.7
20260502113056 4 297 0.0 0.0 0.00 0.00 0.00 67 1017.8
20260502112554 3 282 0.0 0.0 0.00 0.00 0.00 67 1017.8
20260502112054 3 282 0.0 0.0 0.00 0.00 0.00 67 1017.7
20260502111555 3 281 0.0 0.0 0.00 0.00 0.00 67 1017.5
20260502111053 3 281 0.0 0.0 0.00 0.00 0.00 67 1017.4
20260502110553 3 281 0.0 0.0 0.00 0.00 0.00 67 1017.4
20260502110100 3 281 0.0 0.0 0.00 0.00 0.00 67 1017.3
20260502105553 3 281 0.0 0.0 0.00 0.00 0.00 67 1017.3
20260502105052 3 305 0.0 0.0 0.00 0.00 0.00 67 1017.3
20260502104552 2 302 0.0 0.0 0.00 0.00 0.00 67 1017.3
20260502104052 2 299 0.0 0.0 0.00 0.00 0.00 66 1017.3
20260502103552 2 299 0.0 0.0 0.00 0.00 0.00 66 1017.3
20260502103101 2 299 0.0 0.0 0.00 0.00 0.00 66 1017.3
20260502102552 2 299 0.0 0.0 0.00 0.00 0.00 66 1017.1
20260502102051 2 299 0.0 0.0 0.00 0.00 0.00 66 1017.2
20260502101558 2 299 0.0 0.0 0.00 0.00 0.00 66 1017.3
20260502101050 2 299 0.0 0.0 0.00 0.00 0.00 65 1017.4
20260502100551 2 299 0.0 0.0 0.00 0.00 0.00 65 1017.4
20260502091045 3 299 0.0 0.0 0.00 0.00 0.00 64 1017.3
20260502090544 3 299 0.0 0.0 0.00 0.00 0.00 64 1017.3
20260502090110 3 299 0.0 0.0 0.00 0.00 0.00 64 1017.2
20260502071040 3 299 0.0 0.0 0.00 0.00 0.00 63 1017.5
20260502070536 3 299 0.0 0.0 0.00 0.00 0.00 63 1017.4
20260502070048 3 299 0.0 0.0 0.00 0.00 0.00 63 1017.3
20260502065535 3 299 0.0 0.0 0.00 0.00 0.00 63 1017.4
20260502065034 4 299 0.0 0.0 0.00 0.00 0.00 63 1017.3
20260502064538 4 299 0.0 0.0 0.00 0.00 0.00 63 1017.2
20260502064033 4 299 0.0 0.0 0.00 0.00 0.00 63 1017.3
20260502063532 4 299 0.0 0.0 0.00 0.00 0.00 62 1017.4
20260502063040 4 299 0.0 0.0 0.00 0.00 0.00 62 1017.3
20260502062531 5 299 0.0 0.0 0.00 0.00 0.00 62 1017.4
20260502062031 5 299 0.0 0.0 0.00 0.00 0.00 62 1017.5
20260502061530 5 299 0.0 0.0 0.00 0.00 0.00 62 1017.5
20260502061029 5 299 0.0 0.0 0.00 0.00 0.00 62 1017.5
20260502060529 5 299 0.0 0.0 0.00 0.00 0.00 62 1017.5
20260502060029 5 299 0.0 0.0 0.00 0.00 0.00 62 1017.4
20260502055529 5 299 0.0 0.0 0.00 0.00 0.00 62 1017.5
20260502055028 5 299 0.0 0.0 0.00 0.00 0.00 63 1017.5
20260502054534 4 299 0.0 0.0 0.00 0.00 0.00 63 1017.6
20260502054027 4 299 0.0 0.0 0.00 0.00 0.00 63 1017.6
20260502053527 5 299 0.0 0.0 0.00 0.00 0.00 63 1017.5
20260502053029 5 299 0.0 0.0 0.00 0.00 0.00 63 1017.6
20260502052526 5 299 0.0 0.0 0.00 0.00 0.00 63 1017.7
20260502052025 5 299 0.0 0.0 0.00 0.00 0.00 62 1017.8
20260502051524 5 299 0.0 0.0 0.00 0.00 0.00 62 1018.0
20260502051025 5 299 0.0 0.0 0.00 0.00 0.00 62 1018.1
20260502050526 5 299 0.0 0.0 0.00 0.00 0.00 61 1018.1
20260502050033 5 299 0.0 0.0 0.00 0.00 0.00 60 1018.1
20260502045520 5 299 0.0 0.0 0.00 0.00 0.00 60 1018.1
20260502045020 5 299 0.0 0.0 0.00 0.00 0.00 59 1017.9
20260502044518 5 299 0.0 0.0 0.00 0.00 0.00 59 1017.9
20260502044019 6 299 0.0 0.0 0.00 0.00 0.00 59 1018.0
20260502043517 6 299 0.0 0.0 0.00 0.00 0.00 59 1018.0
20260502043020 6 299 0.0 0.0 0.00 0.00 0.00 59 1018.0
20260502042517 6 299 0.0 0.0 0.00 0.00 0.00 58 1018.0
20260502042015 6 299 0.0 0.0 0.00 0.00 0.00 58 1018.0
20260502041514 6 299 0.0 0.0 0.00 0.00 0.00 58 1018.0
20260502041013 6 299 0.0 0.0 0.00 0.00 0.00 57 1018.1
20260502040512 6 299 0.0 0.0 0.00 0.00 0.00 56 1018.1
20260502040011 6 299 0.0 0.0 0.00 0.00 0.00 56 1018.0
20260502035511 6 299 0.0 0.0 0.00 0.00 0.00 55 1018.0
20260502035011 7 299 0.0 0.0 0.00 0.00 0.00 55 1017.9
20260502034514 7 299 0.0 0.0 0.00 0.00 0.00 55 1018.1
20260502034013 7 299 0.0 0.0 0.00 0.00 0.00 55 1018.1
20260502033512 7 299 0.0 0.0 0.00 0.00 0.00 54 1018.1
20260502033010 7 299 0.0 0.0 0.00 0.00 0.00 53 1018.1
20260502032510 7 299 0.0 0.0 0.00 0.00 0.00 52 1018.1
20260502032010 7 299 0.0 0.0 0.00 0.00 0.00 52 1018.0
20260502031510 7 299 0.0 0.0 0.00 0.00 0.00 52 1018.0
20260502031010 7 299 0.0 0.0 0.00 0.00 0.00 52 1018.1
20260502030512 7 299 0.0 0.0 0.00 0.00 0.00 54 1018.2
20260502030008 7 299 0.0 0.0 0.00 0.00 0.00 55 1018.1
20260502025508 7 299 0.0 0.0 0.00 0.00 0.00 55 1018.1
20260502025009 7 299 0.0 0.0 0.00 0.00 0.00 55 1018.1
20260502024507 7 299 0.0 0.0 0.00 0.00 0.00 54 1017.9
20260502024007 8 299 0.0 0.0 0.00 0.00 0.00 51 1017.9
20260502023507 8 299 0.0 0.0 0.00 0.00 0.00 51 1017.8
20260502023007 8 299 0.0 0.0 0.00 0.00 0.00 50 1017.7
20260502022507 8 299 0.0 0.0 0.00 0.00 0.00 48 1017.7
20260502022011 8 299 0.0 0.0 0.00 0.00 0.00 47 1017.8
20260502021507 8 299 0.0 0.0 0.00 0.00 0.00 47 1017.8
20260502021007 9 299 0.0 0.0 0.00 0.00 0.00 48 1017.7
20260502020505 10 299 0.0 0.0 0.00 0.00 0.00 44 1017.7
20260502020005 10 299 0.0 0.0 0.00 0.00 0.00 42 1017.7
20260502015504 10 299 0.0 0.0 0.00 0.00 0.00 42 1017.6
20260502015005 10 299 0.0 0.0 0.00 0.00 0.00 43 1017.6
20260502014502 10 299 0.0 0.0 0.00 0.00 0.00 42 1017.5
20260502014002 10 299 0.0 0.0 0.00 0.00 0.00 42 1017.3
20260502013501 10 299 0.0 0.0 0.00 0.00 0.00 41 1017.2
20260502013108 10 300 0.0 0.0 0.00 0.00 0.00 41 1017.2
20260502012600 10 305 0.0 0.0 0.00 0.00 0.00 42 1017.0
20260502012059 10 305 0.0 0.0 0.00 0.00 0.00 39 1016.9
20260502011559 10 305 0.0 0.0 0.00 0.00 0.00 39 1016.8
20260502011056 10 305 0.0 0.0 0.00 0.00 0.00 39 1016.6
20260502010556 10 305 0.0 0.0 0.00 0.00 0.00 40 1016.5
20260502010054 11 305 0.0 0.0 0.00 0.00 0.00 37 1016.4
20260502005554 11 305 0.0 0.0 0.00 0.00 0.00 34 1016.4
20260502005054 11 305 0.0 0.0 0.00 0.00 0.00 34 1016.4
20260502004556 11 305 0.0 0.0 0.00 0.00 0.00 33 1016.2
20260502004054 12 346 0.0 0.0 0.00 0.00 0.00 33 1016.1
20260502003552 12 346 0.0 0.0 0.00 0.00 0.00 33 1016.0
20260502003054 12 346 0.0 0.0 0.00 0.00 0.00 33 1015.9
20260502002555 12 346 0.0 0.0 0.00 0.00 0.00 33 1016.0
20260502002051 12 302 0.0 0.0 0.00 0.00 0.00 32 1015.9
20260502001613 13 336 0.0 0.0 0.00 0.00 0.00 32 1015.9
20260502001052 13 340 0.0 0.0 0.00 0.00 0.00 31 1015.9
20260502000551 13 331 0.0 0.0 0.00 0.00 0.00 31 1015.8
20260502000105 13 342 0.0 0.0 0.00 0.00 0.00 31 1015.7
20260501235553 13 334 0.0 0.0 0.00 0.00 0.00 34 1015.6
20260501235050 13 351 0.0 0.0 0.00 0.00 0.00 33 1015.5
20260501234550 13 343 0.0 0.0 0.00 0.00 0.00 34 1015.3
20260501234050 13 11 0.0 0.0 0.00 0.00 0.00 31 1015.1
20260501233550 14 347 0.0 0.0 0.00 0.00 0.00 33 1015.0
20260501233051 14 346 0.0 0.0 0.00 0.00 0.00 33 1014.9
20260501232550 14 331 0.0 0.0 0.00 0.00 0.00 34 1014.9
20260501232051 14 331 0.0 0.0 0.00 0.00 0.00 32 1014.8
20260501231549 14 321 0.0 0.0 0.00 0.00 0.00 32 1014.9
20260501231050 14 309 0.0 0.0 0.00 0.00 0.00 33 1014.9
20260501230549 14 302 0.0 0.0 0.00 0.00 0.00 32 1015.0
20260501230048 14 313 0.0 0.0 0.00 0.00 0.00 31 1015.1
20260501225549 14 349 0.0 0.0 0.00 0.00 0.00 29 1015.1
20260501225047 14 323 0.0 0.0 0.00 0.00 0.00 29 1015.0
20260501224605 13 347 0.0 0.0 0.00 0.00 0.00 29 1015.1
20260501224047 14 355 0.0 0.0 0.00 0.00 0.00 28 1015.1
20260501223547 14 5 0.0 0.0 0.00 0.00 0.00 28 1015.0
20260501223047 14 351 0.0 0.0 0.00 0.00 0.00 28 1015.0
20260501222550 13 344 0.0 0.0 0.00 0.00 0.00 30 1015.0
20260501222047 13 346 0.0 0.0 0.00 0.00 0.00 30 1015.0
20260501221547 14 348 0.0 0.0 0.00 0.00 0.00 29 1014.9
20260501221046 14 344 0.0 0.0 0.00 0.00 0.00 29 1015.0
20260501220546 15 344 0.0 0.0 0.00 0.00 0.00 29 1015.0
20260501220048 15 344 0.0 0.0 0.00 0.00 0.00 30 1015.0
20260501215547 15 350 0.0 0.0 0.00 0.00 0.00 29 1015.2
20260501215046 15 12 0.0 0.0 0.00 0.00 0.00 31 1015.1
20260501214546 15 345 0.0 0.0 0.00 0.00 0.00 31 1015.1
20260501214046 15 329 0.0 0.0 0.00 0.00 0.00 29 1015.0
20260501213545 15 304 0.0 0.0 0.00 0.00 0.00 27 1015.0
20260501213047 15 306 0.0 0.0 0.00 0.00 0.00 30 1015.0
20260501212545 14 309 0.0 0.0 0.00 0.00 0.00 31 1015.1